Temp
-5 -5 -5 -5 -5 -5 -5 -5 -5 -5 -5 -5 -5 -5 -6 -6 -6 -6 -6 -6 -6 -6 -7 -6 -6 -7 -7 -7 -7 -7 -7 -7 -7 -7 -7 -7 -7 -7 -7 -7 -7 -7
-5 -5 -5 -5 -5 -5 -5 -5 -5 -5 -5 -5 -5 -5 -6 -6 -6 -6 -6 -6 -6 -6 -6 -6 -7 -7 -7 -7 -7 -7 -7 -7 -7 -7 -7 -7 -7 -7 -7 -7 -7 -7
-5 -5 -5 -5 -5 -5 -5 -5 -5 -5 -5 -5 -5 -5 -5 -5 -6 -6 -6 -6 -6 -6 -6 -6 -7 -7 -7 -7 -7 -7 -7 -7 -7 -7 -7 -7 -7 -7 -7 -8 -8 -8
-5 -5 -5 -5 -5 -5 -5 -5 -5 -5 -5 -5 -5 -5 -5 -5 -5 -6 -6 -6 -6 -6 -6 -6 -6 -6 -7 -7 -7 -7 -7 -7 -7 -7 -7 -7 -7 -7 -7 -8 -8 -8
-5 -5 -5 -4 -4 -4 -5 -5 -5 -5 -5 -5 -5 -5 -5 -5 -5 -5 -5 -6 -6 -6 -6 -6 -6 -6 -6 -7 -7 -7 -7 -7 -7 -7 -7 -7 -7 -7 -7 -8 -8 -8
-4 -4 -4 -4 -4 -4 -4 -5 -5 -5 -5 -5 -5 -5 -5 -5 -5 -5 -5 -5 -5 -5 -6 -6 -6 -6 -6 -6 -7 -7 -7 -7 -7 -7 -7 -7 -7 -7 -7 -8 -8 -8
-4 -4 -4 -4 -4 -4 -4 -5 -5 -5 -5 -5 -5 -5 -5 -5 -5 -5 -5 -5 -5 -5 -5 -6 -6 -6 -6 -6 -6 -6 -7 -7 -7 -7 -7 -7 -7 -7 -7 -7 -8 -8
-5 -4 -4 -4 -4 -4 -5 -5 -5 -5 -5 -5 -5 -5 -5 -5 -5 -5 -5 -5 -5 -5 -5 -6 -6 -6 -6 -6 -6 -6 -6 -6 -7 -7 -7 -7 -7 -7 -7 -7 -8 -8
-5 -4 -4 -4 -4 -5 -5 -5 -5 -5 -5 -5 -5 -5 -5 -5 -5 -5 -5 -5 -5 -5 -5 -6 -6 -6 -6 -6 -6 -6 -6 -6 -6 -7 -7 -7 -7 -7 -7 -7 -8 -8
-5 -5 -4 -4 -5 -5 -5 -5 -5 -5 -5 -5 -5 -5 -5 -5 -5 -5 -5 -5 -5 -5 -6 -6 -6 -6 -6 -6 -6 -6 -6 -6 -6 -6 -7 -7 -7 -7 -7 -7 -7 -8
-5 -5 -5 -5 -5 -5 -5 -4 -4 -4 -4 -4 -4 -4 -5 -5 -5 -5 -5 -5 -5 -6 -6 -6 -6 -6 -6 -6 -6 -6 -6 -6 -6 -7 -7 -7 -7 -7 -7 -7 -7 -7
-5 -5 -5 -5 -5 -5 -5 -4 -4 -4 -4 -4 -4 -5 -5 -5 -5 -5 -5 -5 -5 -6 -6 -6 -6 -6 -6 -6 -6 -6 -7 -7 -7 -7 -7 -7 -7 -7 -7 -7 -7 -7
-5 -5 -5 -5 -5 -5 -5 -5 -5 -5 -5 -5 -5 -5 -5 -5 -5 -5 -5 -5 -6 -6 -6 -6 -6 -6 -6 -6 -7 -7 -7 -7 -7 -7 -7 -7 -7 -7 -7 -7 -7 -7
-5 -5 -5 -5 -5 -5 -5 -5 -5 -5 -5 -5 -5 -5 -5 -5 -5 -6 -6 -6 -6 -6 -6 -6 -6 -6 -6 -6 -6 -6 -7 -7 -7 -7 -7 -7 -7 -7 -7 -7 -7 -7
-5 -5 -5 -5 -5 -5 -5 -5 -5 -5 -5 -5 -5 -5 -5 -5 -6 -6 -6 -6 -6 -6 -6 -6 -6 -6 -6 -6 -6 -6 -6 -7 -7 -7 -7 -7 -7 -7 -7 -7 -7 -7
-5 -5 -5 -5 -5 -5 -5 -5 -5 -5 -5 -5 -5 -6 -6 -5 -6 -6 -6 -6 -6 -6 -6 -6 -6 -6 -6 -5 -6 -6 -6 -7 -7 -7 -7 -7 -7 -7 -7 -7 -7 -7
-6 -6 -6 -6 -6 -6 -6 -6 -6 -6 -6 -6 -6 -6 -6 -6 -6 -6 -6 -6 -6 -6 -5 -5 -6 -6 -5 -5 -5 -6 -6 -6 -7 -7 -7 -7 -7 -7 -7 -7 -7 -7
-6 -6 -6 -6 -6 -6 -6 -6 -6 -6 -6 -6 -6 -6 -6 -6 -6 -6 -6 -6 -5 -5 -5 -5 -6 -5 -5 -5 -5 -6 -6 -6 -6 -7 -7 -7 -7 -7 -7 -7 -7 -7
-7 -7 -7 -6 -6 -6 -6 -6 -6 -6 -6 -6 -6 -6 -6 -6 -6 -6 -6 -5 -5 -5 -5 -6 -6 -5 -5 -5 -5 -6 -6 -6 -6 -6 -6 -6 -7 -7 -7 -7 -7 -7
-7 -7 -7 -7 -7 -7 -6 -6 -6 -6 -6 -6 -6 -6 -5 -6 -6 -6 -6 -6 -6 -6 -6 -6 -6 -5 -5 -5 -6 -6 -6 -6 -6 -6 -6 -6 -7 -7 -7 -7 -7 -7
-7 -7 -7 -7 -7 -7 -6 -6 -6 -6 -6 -6 -6 -6 -6 -6 -6 -6 -6 -6 -6 -6 -6 -6 -6 -6 -5 -6 -6 -6 -6 -6 -6 -6 -6 -7 -7 -7 -7 -7 -7 -7
-7 -7 -7 -7 -7 -7 -7 -6 -6 -6 -6 -6 -6 -6 -6 -6 -6 -6 -6 -6 -6 -6 -6 -6 -6 -6 -6 -6 -6 -6 -6 -6 -6 -6 -7 -7 -7 -7 -7 -7 -7 -7
-7 -7 -7 -7 -7 -7 -7 -7 -7 -6 -6 -6 -6 -6 -6 -6 -6 -6 -6 -6 -6 -6 -6 -6 -6 -6 -6 -6 -6 -6 -6 -6 -6 -7 -7 -7 -7 -7 -7 -7 -7 -7
-7 -7 -7 -7 -7 -7 -7 -7 -7 -7 -6 -6 -6 -6 -6 -6 -6 -6 -6 -6 -6 -6 -6 -6 -6 -6 -6 -6 -6 -6 -6 -7 -7 -7 -7 -7 -7 -7 -7 -7 -8 -8
-7 -7 -7 -7 -7 -7 -7 -7 -7 -7 -7 -7 -6 -6 -6 -7 -7 -6 -6 -6 -6 -6 -6 -6 -6 -6 -6 -6 -7 -7 -7 -7 -7 -7 -7 -7 -7 -7 -8 -8 -8 -8
-7 -7 -7 -7 -7 -7 -7 -7 -7 -7 -7 -7 -7 -7 -7 -7 -7 -7 -7 -6 -6 -7 -7 -7 -7 -7 -7 -7 -7 -7 -7 -7 -7 -7 -7 -7 -7 -7 -7 -7 -7 -8
Height
5928 5929 5930 5931 5932 5933 5934 5935 5936 5937 5938 5940 5941 5942 5944 5945 5945 5946 5946 5946 5947 5947 5947 5947 5948 5948 5948 5948 5948 5948 5948 5949 5949 5949 5950 5950 5950 5950 5950 5950 5950 5950
5926 5928 5929 5930 5932 5933 5934 5935 5936 5937 5938 5939 5940 5942 5943 5944 5945 5945 5946 5946 5946 5947 5947 5947 5948 5948 5948 5948 5948 5948 5948 5949 5949 5950 5950 5950 5950 5950 5950 5950 5950 5949
5925 5926 5928 5929 5931 5932 5933 5934 5935 5936 5937 5938 5939 5941 5942 5943 5944 5944 5945 5946 5946 5947 5947 5947 5948 5948 5948 5948 5949 5949 5949 5949 5949 5950 5950 5950 5950 5950 5950 5949 5949 5949
5924 5925 5926 5928 5929 5931 5932 5933 5935 5936 5937 5937 5938 5939 5940 5941 5943 5943 5944 5945 5945 5946 5946 5947 5947 5948 5948 5948 5949 5949 5949 5949 5949 5949 5950 5950 5950 5950 5950 5949 5949 5949
5922 5923 5925 5926 5928 5930 5932 5933 5934 5935 5936 5936 5937 5938 5939 5940 5941 5942 5943 5944 5944 5945 5946 5946 5947 5947 5948 5948 5948 5949 5949 5949 5949 5949 5949 5950 5950 5950 5950 5949 5949 5949
5920 5922 5923 5925 5927 5929 5931 5932 5933 5934 5935 5936 5936 5937 5938 5939 5940 5941 5942 5943 5943 5944 5944 5945 5946 5947 5947 5947 5948 5948 5948 5949 5949 5949 5949 5949 5949 5949 5949 5949 5949 5948
5919 5920 5922 5924 5926 5928 5929 5931 5932 5933 5934 5935 5936 5936 5937 5938 5939 5940 5941 5941 5942 5943 5943 5944 5945 5946 5946 5947 5947 5947 5948 5948 5948 5948 5948 5948 5948 5948 5949 5949 5948 5948
5917 5919 5920 5922 5924 5926 5928 5929 5931 5932 5933 5935 5936 5936 5937 5937 5938 5939 5939 5940 5941 5941 5942 5943 5944 5944 5945 5945 5946 5946 5947 5947 5947 5948 5948 5948 5948 5947 5947 5947 5947 5947
5915 5917 5919 5921 5923 5925 5926 5928 5929 5931 5932 5934 5935 5935 5936 5937 5937 5938 5939 5939 5940 5940 5941 5942 5942 5943 5943 5943 5944 5945 5945 5946 5946 5947 5947 5947 5947 5947 5947 5946 5946 5946
5913 5916 5918 5920 5922 5924 5925 5927 5928 5930 5931 5932 5933 5934 5935 5936 5937 5937 5938 5939 5939 5939 5940 5940 5941 5941 5942 5942 5943 5943 5943 5944 5945 5945 5946 5946 5946 5946 5946 5946 5945 5945
5912 5914 5917 5919 5920 5922 5924 5926 5927 5929 5930 5931 5932 5933 5934 5935 5936 5937 5937 5938 5938 5938 5939 5939 5939 5940 5940 5941 5941 5942 5942 5942 5943 5943 5944 5945 5945 5945 5945 5945 5944 5944
5911 5913 5915 5917 5918 5920 5922 5924 5926 5928 5929 5930 5931 5932 5933 5933 5934 5935 5936 5936 5936 5937 5937 5938 5938 5939 5939 5939 5939 5940 5940 5941 5941 5941 5942 5942 5943 5943 5944 5944 5943 5943
5910 5912 5914 5915 5917 5918 5920 5922 5924 5926 5927 5929 5930 5931 5931 5932 5933 5933 5934 5934 5935 5935 5936 5936 5936 5937 5937 5938 5938 5938 5939 5939 5940 5940 5940 5940 5941 5941 5942 5942 5942 5942
5909 5910 5912 5913 5915 5917 5919 5921 5922 5924 5925 5927 5928 5929 5930 5930 5931 5931 5932 5932 5933 5933 5934 5934 5935 5935 5935 5936 5936 5936 5937 5937 5938 5938 5938 5939 5939 5939 5940 5940 5940 5940
5906 5908 5910 5912 5914 5916 5918 5919 5921 5922 5923 5925 5926 5927 5928 5929 5929 5930 5930 5931 5931 5931 5932 5932 5933 5933 5933 5933 5934 5934 5935 5935 5936 5937 5937 5937 5937 5938 5938 5938 5938 5938
5905 5907 5909 5911 5913 5915 5916 5918 5919 5920 5922 5923 5924 5925 5926 5927 5928 5928 5929 5930 5930 5930 5930 5930 5931 5931 5931 5931 5932 5932 5932 5933 5934 5934 5935 5935 5936 5936 5936 5936 5937 5937
5904 5906 5908 5909 5911 5913 5914 5916 5917 5918 5920 5921 5922 5923 5924 5925 5926 5927 5927 5928 5928 5928 5928 5929 5929 5928 5929 5929 5929 5930 5930 5931 5932 5932 5933 5933 5934 5934 5934 5935 5935 5935
5903 5905 5906 5908 5909 5910 5912 5913 5915 5917 5918 5919 5920 5921 5922 5923 5924 5925 5925 5925 5926 5926 5927 5927 5926 5926 5927 5927 5927 5927 5928 5929 5930 5930 5931 5931 5932 5932 5933 5933 5934 5934
5902 5904 5905 5906 5907 5909 5910 5911 5913 5915 5916 5916 5917 5918 5919 5921 5922 5923 5923 5924 5924 5924 5925 5925 5924 5925 5925 5925 5925 5925 5926 5927 5928 5928 5929 5930 5930 5931 5932 5932 5933 5933
5901 5902 5904 5905 5906 5907 5908 5910 5911 5912 5913 5913 5914 5916 5917 5918 5919 5920 5921 5922 5922 5922 5922 5923 5923 5923 5923 5923 5923 5924 5925 5925 5926 5927 5928 5928 5929 5930 5930 5931 5931 5932
5900 5901 5902 5903 5904 5906 5907 5908 5909 5910 5910 5911 5912 5914 5915 5916 5917 5918 5919 5920 5920 5920 5920 5921 5921 5921 5921 5921 5922 5922 5923 5924 5925 5925 5926 5927 5928 5928 5929 5929 5930 5930
5898 5900 5901 5902 5903 5904 5905 5906 5907 5907 5908 5909 5910 5911 5912 5913 5914 5915 5917 5917 5918 5918 5918 5919 5919 5919 5919 5920 5920 5921 5922 5923 5923 5924 5925 5925 5926 5927 5927 5928 5928 5929
5896 5898 5899 5900 5901 5903 5904 5904 5905 5905 5906 5907 5908 5909 5910 5911 5912 5912 5913 5914 5915 5915 5916 5916 5916 5917 5918 5918 5919 5920 5921 5922 5922 5922 5923 5924 5924 5925 5926 5926 5926 5927
5893 5895 5897 5898 5899 5901 5902 5902 5903 5903 5904 5905 5906 5907 5908 5909 5909 5909 5910 5911 5912 5913 5913 5913 5914 5915 5916 5916 5918 5919 5920 5920 5920 5921 5922 5922 5923 5923 5924 5924 5925 5925
5891 5892 5894 5896 5897 5898 5899 5900 5900 5901 5902 5902 5903 5904 5905 5906 5906 5907 5908 5909 5910 5911 5911 5911 5912 5913 5914 5915 5916 5917 5918 5918 5918 5919 5920 5921 5921 5921 5922 5922 5923 5923
5888 5890 5892 5893 5894 5895 5896 5897 5898 5899 5900 5900 5901 5902 5903 5903 5904 5905 5906 5907 5907 5908 5908 5909 5910 5910 5912 5913 5913 5914 5915 5916 5916 5918 5918 5918 5918 5919 5919 5920 5920 5920
Wind_Speed
15 15 16 16 17 17 16 16 16 16 15 13 11 9 7 6 4 3 3 3 3 3 4 5 6 6 6 6 5 4 4 6 6 5 5 5 4 4 4 4 4 3
17 17 17 17 18 18 18 17 17 16 15 13 12 10 8 7 6 5 3 3 2 3 3 5 6 7 7 8 8 8 8 9 10 10 10 9 8 6 5 5 5 4
19 19 19 18 19 19 19 19 17 16 14 13 11 11 10 9 8 7 5 4 3 3 3 3 4 4 5 6 7 8 8 9 10 11 12 12 12 11 10 8 6 5
20 20 21 21 21 21 21 20 18 17 15 14 13 13 12 10 9 8 7 6 5 4 4 3 2 1 2 2 3 4 5 6 7 8 9 10 11 12 13 12 11 9
21 22 23 22 22 21 21 20 19 18 17 16 15 14 13 12 11 9 8 7 6 6 6 5 5 4 3 2 2 3 4 5 6 7 8 8 9 10 11 12 13 12
23 23 23 23 22 21 21 20 20 19 19 18 16 15 14 13 12 11 10 9 8 7 7 7 7 7 6 6 6 6 6 7 7 8 9 9 9 9 9 10 12 13
23 24 23 23 22 21 21 21 21 20 19 18 17 16 14 13 13 12 11 9 9 8 8 8 8 8 9 9 9 9 9 9 9 10 10 10 10 10 10 10 10 12
23 24 24 23 22 22 22 22 21 20 19 18 17 17 16 15 14 13 12 11 10 10 9 9 9 10 11 11 11 11 10 11 11 11 11 10 11 11 11 10 10 11
24 24 24 23 22 23 23 23 22 20 19 18 19 19 18 17 15 14 13 12 11 11 11 10 10 11 12 12 12 12 12 11 11 11 11 10 11 11 11 11 11 11
24 24 23 22 22 23 24 23 22 21 20 20 20 19 18 18 16 15 14 13 13 12 12 11 11 11 12 12 12 12 12 12 11 11 10 10 10 10 10 10 11 11
24 24 23 22 23 24 23 22 21 20 20 21 20 19 19 18 17 16 15 14 14 13 13 12 11 11 11 12 12 12 12 12 12 11 10 9 9 9 9 9 10 11
25 24 24 24 24 23 23 21 20 20 20 20 19 19 19 18 17 16 15 15 15 14 13 13 12 12 12 13 13 13 13 13 13 12 12 11 10 9 9 9 10 10
24 24 24 24 24 24 23 21 20 20 19 19 19 18 18 17 16 16 16 17 17 15 14 14 13 13 13 14 14 14 15 14 14 13 13 12 11 10 10 9 9 10
24 25 25 25 26 25 24 22 21 21 20 20 19 19 18 17 17 18 18 18 17 16 15 14 13 13 13 14 14 15 15 14 14 14 13 13 12 12 11 10 10 9
25 26 26 26 25 24 22 22 22 22 21 21 20 19 19 18 19 19 18 17 16 16 15 14 13 13 13 13 13 13 14 13 12 12 12 13 13 12 11 10 9 9
25 25 25 24 22 21 21 21 21 21 21 21 20 20 19 19 19 18 16 16 17 16 16 14 12 12 12 12 12 12 12 12 11 11 12 13 13 12 11 10 8 7
24 24 23 22 21 21 21 21 22 21 21 21 20 20 20 19 18 17 16 17 18 17 16 14 13 13 12 12 12 12 12 12 12 12 13 13 13 12 11 9 7 6
23 23 22 21 21 21 21 22 22 22 22 21 21 21 20 19 18 17 18 18 18 17 16 14 14 14 12 12 13 13 12 12 12 12 12 12 12 11 9 8 7 6
20 20 19 19 19 19 20 20 19 19 20 21 22 22 21 20 19 19 19 19 18 18 17 16 15 14 13 14 14 13 12 12 12 12 11 11 10 9 8 7 6 5
18 17 17 17 17 17 18 18 17 17 18 20 21 22 22 21 20 19 19 20 20 20 18 17 16 15 15 15 14 13 13 12 12 12 12 11 10 9 8 7 6 4
18 18 17 16 16 16 16 16 16 16 18 19 20 21 22 22 21 21 21 21 22 21 19 17 17 18 17 16 15 14 14 14 13 13 13 12 10 9 9 8 6 6
19 19 18 17 16 16 16 16 17 17 18 19 20 21 23 23 23 23 22 21 21 22 20 18 19 19 18 17 17 17 16 15 15 15 14 12 12 12 11 9 9 9
21 20 19 18 17 17 16 16 17 17 18 19 20 22 23 24 24 24 23 23 23 22 21 20 20 20 19 19 19 19 18 18 17 16 15 14 14 13 12 11 11 12
23 22 21 20 18 18 17 17 16 16 16 18 20 22 24 25 26 26 26 25 24 22 22 22 21 21 21 21 21 21 20 20 20 19 17 15 14 14 13 12 12 13
25 24 23 22 20 19 18 18 17 16 16 16 18 21 24 26 27 27 27 26 24 23 23 23 22 22 22 22 22 22 23 22 22 20 17 16 15 15 15 14 14 15
26 25 24 24 23 23 22 21 19 19 18 17 16 18 21 25 27 27 27 27 26 25 25 24 23 22 23 23 24 24 24 24 23 21 19 18 18 18 17 16 16 17
Wind_Direction
199 197 201 199 192 186 180 177 176 175 174 175 176 177 172 171 175 163 140 127 110 92 87 85 83 85 85 86 87 75 58 57 54 43 35 23 12 9 6 3 1 355
197 197 201 201 196 190 185 184 181 180 180 180 180 181 181 184 193 193 176 162 144 120 106 95 90 90 87 82 81 78 68 61 59 54 48 42 32 24 15 5 357 352
198 198 200 201 199 195 191 190 187 186 187 185 182 184 189 190 191 196 198 189 174 159 147 122 102 92 86 79 73 71 65 57 54 52 50 46 39 34 29 24 14 360
200 199 200 201 200 197 194 193 192 192 192 190 188 188 189 190 189 194 201 201 193 186 183 182 177 143 84 66 52 48 46 39 35 34 36 37 36 32 29 27 25 19
201 200 201 201 200 198 196 196 196 195 195 194 192 188 184 186 188 190 196 200 202 201 201 208 218 232 254 282 314 334 348 356 358 358 2 10 16 18 19 19 20 20
202 202 203 202 201 199 197 197 199 198 197 195 192 188 184 185 188 189 194 199 204 210 215 221 231 241 253 265 278 290 304 315 321 326 332 339 345 351 359 3 7 10
203 203 204 203 201 199 197 198 199 199 197 194 192 190 187 188 192 194 197 202 208 217 225 231 240 248 255 262 269 277 286 293 299 305 312 319 323 327 334 343 349 354
204 204 204 204 200 197 197 198 198 198 196 193 192 192 192 195 200 202 204 210 216 225 231 236 244 252 258 263 268 273 279 283 288 293 298 302 307 312 319 326 331 337
203 204 204 202 198 196 197 198 198 197 194 192 193 194 196 201 205 209 213 218 225 232 237 240 244 250 257 263 269 274 277 280 282 286 290 292 294 300 307 312 315 319
199 201 201 199 197 197 199 200 199 198 194 193 196 197 200 206 210 214 219 223 227 232 236 240 244 250 255 261 267 272 277 281 282 281 283 285 286 291 295 298 302 306
192 195 195 196 197 199 202 202 201 198 194 195 198 199 204 209 213 216 219 221 223 225 229 234 242 249 255 260 264 268 272 275 277 278 278 277 277 280 282 285 290 296
188 190 191 194 197 199 202 201 199 197 195 197 201 202 207 212 214 217 219 221 223 224 225 228 233 239 247 254 259 262 264 264 265 268 270 270 270 270 271 275 280 288
188 190 191 193 196 198 198 196 195 195 197 201 204 207 211 214 216 219 221 224 226 227 228 231 233 237 242 248 252 254 255 255 256 257 260 263 265 265 267 271 274 280
188 189 191 192 194 194 193 192 194 196 200 204 207 211 214 216 219 222 225 228 230 231 232 233 236 241 245 249 252 253 252 251 249 249 252 256 260 262 265 267 270 275
191 191 192 193 193 193 193 194 198 201 203 207 211 215 218 220 223 225 228 232 235 235 235 237 240 244 248 250 251 252 251 249 244 240 241 246 252 256 257 258 262 267
193 193 194 193 193 196 198 201 204 206 208 211 216 220 223 225 228 230 230 231 233 235 237 240 243 245 248 249 248 245 243 240 235 229 229 234 240 245 247 249 249 249
193 192 193 193 195 200 204 207 210 212 214 218 220 223 226 228 230 230 229 229 230 232 235 238 241 244 246 245 242 238 233 229 226 224 225 226 229 231 234 235 234 234
191 192 193 196 199 204 208 213 215 217 220 222 224 225 226 228 230 229 228 229 230 232 234 235 238 241 242 240 236 233 229 222 217 217 217 217 217 219 220 220 221 228
188 189 191 195 199 204 209 213 217 221 224 225 225 225 225 226 227 227 228 231 233 234 234 233 236 239 237 234 231 227 220 213 208 208 209 208 207 208 210 211 212 219
185 186 190 195 200 205 209 212 216 219 223 225 225 226 225 225 226 227 227 229 232 234 234 233 235 235 232 229 225 220 214 208 205 205 206 204 201 200 204 206 210 225
189 192 197 202 206 210 213 215 219 220 222 224 224 225 226 226 226 226 226 227 231 234 234 233 233 232 229 225 221 218 215 211 209 207 206 203 200 202 206 209 218 234
197 200 205 208 211 215 219 223 226 227 226 225 224 224 226 228 228 227 226 226 229 232 231 230 231 230 227 224 222 220 218 214 212 211 209 206 204 209 213 218 228 239
203 207 210 214 217 220 223 228 231 233 232 230 227 225 227 228 229 230 228 225 225 227 225 225 228 228 226 225 224 222 219 216 215 214 211 210 212 216 222 229 239 247
208 212 214 218 222 225 227 229 234 239 238 235 231 228 228 229 230 231 230 227 224 223 222 224 227 228 227 227 225 222 219 217 217 216 214 215 219 225 231 237 247 255
212 216 218 220 224 228 230 231 235 242 245 243 238 232 229 230 231 231 232 230 226 222 222 225 228 230 230 227 225 223 221 219 219 218 217 219 224 230 236 241 248 257
212 217 221 223 225 228 231 232 233 238 244 248 247 241 234 231 231 231 232 232 229 225 225 227 230 232 230 228 227 226 223 222 222 219 219 223 227 232 238 245 253 260